Notices

What's New in latest Release from April 7th, 2021:

- Updated Glossary, including Speed of Maximum Gust, and Total Hourly Precipitation

- Updated national and regional climate services offices contacts and prices information

- Addition of station inventory lists for 1981-2010, 1971-2000, and 1961-1990 Normals.

If you haven't already, please take our survey and provide feedback about our website: https://eccc.sondage-survey.ca/f/LanguageSelection.aspx?s=442ca660-fcf1-47c0-95a9-59707d6fd709

Hourly Data Report for September 05, 2015

IQALUIT CLIMATE
NUNAVUT

63°44'50.000" N
68°32'40.000" W
33.50 m
2402592
71321
XFB

Download Data

Hourly Data (September 2015)
Hourly Data Report for September 5, 2015
TIME
LST
Temp Definition
°C
Dew Point Definition
°C
Rel Hum Definition
%
Precip. Amount Definition
mm

Wind Dir Definition
10's deg

Wind Spd Definition
km/h
Visibility Definition
km
Stn Press Definition
kPa
Hmdx Definition


Wind Chill Definition


Weather Definition


00:00 3.7 0.9 82 0.0 36 17   101.03     LegendNANA
01:00 3.9 0.5 78 0.2 36 10   101.12     LegendNANA
02:00 4.1 -1.1 69 0.0 4 23   101.20     LegendNANA
03:00 LegendMM -0.9 83 0.0 32 14   101.31     LegendNANA
04:00 0.9 -1.1 87 0.0 34 14   101.40     LegendNANA
05:00 1.3 -0.6 88 0.0 34 13   101.48     LegendNANA
06:00 2.5 0.1 84 0.0 33 19   101.57     LegendNANA
07:00 3.2 0.7 84 0.0 33 20   101.60     LegendNANA
08:00 4.8 1.5 79 0.0 34 24   101.65     LegendNANA
09:00 4.7 1.2 79 0.0 33 34   101.68     LegendNANA
10:00 5.5 2.0 79 0.0 33 32   101.72     LegendNANA
11:00 7.2 1.7 68 0.0 32 22   101.70     LegendNANA
12:00 8.7 0.9 58 0.0 33 25   101.66     LegendNANA
13:00 9.3 0.7 55 0.0 32 30   101.64     LegendNANA
14:00 9.0 -1.1 49 0.0 32 29   101.63     LegendNANA
15:00 9.0 -1.2 49 0.0 32 30   101.59     LegendNANA
16:00 8.9 -0.6 52 0.0 33 26   101.55     LegendNANA
17:00 8.6 -0.6 52 0.0 32 28   101.50     LegendNANA
18:00 7.8 0.2 59 0.0 33 23   101.48     LegendNANA
19:00 7.4 0.5 61 0.0 31 20   101.47     LegendNANA
20:00 5.8 1.1 72 0.0 33 29   101.47     LegendNANA
21:00 4.4 0.8 77 0.0 33 36   101.43     LegendNANA
22:00 3.4 0.3 80 0.0 33 32   101.39     LegendNANA
23:00 2.0 -0.4 84 0.0 32 20   101.37     LegendNANA

Notes on Data Quality.

Legend

  • E = Estimated
  • M = Missing
  • NA = Not Available*
  • [empty] = Indicates an unobserved value
Date modified: